Regional Weather Roundup
Issued by NWS Midland/Odessa, TX

Skip options and go directly to product.
Home | Oldest Version | Next Version | Current Version | All | Text Only | Save Text | Print | Product List | Glossary On

Skip product version selection by date and time.   
425
ASUS44 KMAF 201510
RWRMAF
MIDLAND AREA WEATHER ROUNDUP
NATIONAL WEATHER SERVICE MIDLAND TX
1000 AM CDT WED AUG 20 2014

...IN SOUTHWEST TEXAS AND SOUTHEAST NEW MEXICO...

CITY           SKY/WX    TMP DP  RH WIND       PRES   REMARKS
ALPINE         CLOUDY    76  60  59 W8        30.12S
ANDREWS        FAIR      81  64  55 S13G20    29.97S
ARTESIA        MOSUNNY   79  59  50 S8        29.96R
BIG SPRING     SUNNY     81  64  55 S22       29.99R
CARLSBAD       PTSUNNY   80  60  50 NE7       29.94R
DRYDEN           N/A     84  65  52 SE13      29.96R
FORT STOCKTON  PTSUNNY   82  65  56 S16       29.98
GUAD PASS      CLOUDY    65  57  75 W17       30.12R
HOBBS          SUNNY     81  59  47 S15       29.99R
MARFA          CLOUDY    66  64  94 W10       30.12S
MIDLAND AIRPK  SUNNY     82  65  57 S15G23    29.97S
MIDLAND INTL   SUNNY     82  65  56 S17       29.96R
ODESSA         SUNNY     80  64  58 S20       29.98R
PECOS          CLOUDY    80  63  56 CALM      29.95R
PRESIDIO       FAIR      76  65  68 CALM      30.01R
SEMINOLE       SUNNY     81  63  54 S10G16    29.98R
SNYDER         SUNNY     78  66  67 S18G25    29.97S
WINK           CLOUDY    81  65  58 S10       29.94R
$$
...OTHER STATIONS IN TEXAS...

CITY           SKY/WX    TMP DP  RH WIND       PRES   REMARKS
ABILENE        SUNNY     81  64  56 S23G29    29.97S
AMARILLO       SUNNY     77  64  64 S22G29    29.94F
AUSTIN         PTSUNNY   85  74  69 S18G24    29.98S
BROWNSVILLE    CLOUDY    90  77  65 SE20      29.94R HX 103
CORPUS CHRISTI PTSUNNY   87  76  69 S17       29.95R
DALLAS FTW     PTSUNNY   85  72  65 S21       29.97R
DEL RIO        CLOUDY    81  71  71 SE13G20   29.94R
EL PASO        MOSUNNY   73  58  59 SW9       30.02R
HOUSTON INT    PTSUNNY   88  77  69 S10       30.00R HX 100
LUBBOCK        MOSUNNY   79  64  60 S18G25    29.96S
SAN ANGELO     SUNNY     79  68  69 S20G25    29.98R
SAN ANTONIO    PTSUNNY   83  72  69 S18       29.99R
WACO           PTSUNNY   84  73  69 S16       29.98S
WICHITA FALLS  NOT AVBL
$$
...OTHER LOCATIONS IN NEW MEXICO...

CITY           SKY/WX    TMP DP  RH WIND       PRES   REMARKS
ALAMAGORDO     PTSUNNY   70  55  60 S14       30.04R
ALBUQUERQUE    CLOUDY    70  53  54 CALM      30.11S
CANNON AFB     SUNNY     75  62  62 SW10      29.99S
CLOVIS           N/A     75  63  64 SW13      30.01S
HOLLOMAN AFB   PTSUNNY   72  57  60 SE12      30.02R
ROSWELL        PTSUNNY   75  59  57 CALM      29.96R
RUIDOSO        CLOUDY    64  54  68 NW6       30.19R
SANTA FE       CLOUDY    65  54  67 SW7       30.14R
TRUTH OR CONSE CLOUDY    71  57  61 SE5       30.07R
TUCUMCARI      SUNNY     79  57  46 SW14      29.93R
$$

USA.gov is the U.S. government's official web portal to all federal, state and local government web resources and services.